sat.trackr.live / text

‹ back to catalog

STARLINK-2636

NORAD 48357 · 2021-038E

PAYLOAD ACTIVE UNKNOWN

§ Identity

Operator
Country
US
Launch date
2021-05-04
Launch site
AFETR
Launch vehicle
Mass (kg)
RCS (m²)

Purposes: comms

External: N2YO · Heavens-Above · Gunter

§ Orbital elements

Epoch: 2026-09-08T22:53:03.332256Z

Period
94.01 min
Inclination
53.1586°
Eccentricity
0.0001174
Mean motion
15.31709252 rev/d
Perigee alt
469.9 km
Apogee alt
471.5 km
Semi-major
6,848.8 km
B*
5.8152e-5
RAAN
225.3077°
Arg perigee
79.8427°
Mean anomaly
280.2706°
Rev number
29,516

§ Raw data

STARLINK-26361 48357U 21038E   26251.95351079  .00001440  00000+0  58152-4 0  99992 48357  53.1586 225.3077 0001174  79.8427 280.2706 15.31709252295166

JSON: /api/v1/satellites/48357 · /tle

For live sub-satellite position, see the globe view (requires WebGL).

§ Visibility from observer

Set your observer location to see the next 7 days of passes ≥ 10°. The values pass through the URL so the page stays shareable.

No JS? Fill the form by hand. The geolocation button needs JavaScript.